Weather History for Gulf Shores, AL

Change the Weather History Date:

Sunday, March 10, 2013

  Actual Average (KPNS) Record (KPNS)
Temperature  
Mean Temperature 66 °F 59 °F  
Max Temperature 71 °F 69 °F 81 °F (1980)
Min Temperature 62 °F 50 °F 23 °F (1932)
Degree Days  
Heating Degree Days 0 7  
Month to date heating degree days 74  
Since 1 July heating degree days 1382  
Cooling Degree Days 2 1  
Month to date cooling degree days 9  
Year to date cooling degree days 23  
Growing Degree Days 16 (Base 50)    
Moisture  
Dew Point 58 °F    
Average Humidity 75    
Maximum Humidity 83    
Minimum Humidity 64    
Precipitation  
Precipitation 0.00 in 0.18 in 7.32 in (1913)
Month to date precipitation 1.97  
Year to date precipitation 11.66  
Snow  
Snow 0.00 in 0.00 in - ()
Month to date snowfall 0.0  
Since 1 July snowfall 0.0  
Snow Depth -    
Sea Level Pressure  
Sea Level Pressure 30.03 in    
Wind  
Wind Speed 16 mph (ESE)    
Max Wind Speed 24 mph    
Max Gust Speed 32 mph    
Visibility 10 miles    
Events      
T = Trace of Precipitation, MM = Missing Value Source: NWS Daily Summary

Daily Weather History Graph

Daily Weather History Graph

Search for Another Location

Airport:

Trip Planner

Search our weather history database for the weather conditions in past years. The results will help you decide how hot, cold, wet, or windy it might be!

Date:

Astronomy

Mar. 10, 2013 Rise Set
Actual Time 7:06 AM CDT 6:55 PM CDT
Civil Twilight 6:42 AM CDT 7:19 PM CDT
Nautical Twilight 6:14 AM CDT 7:47 PM CDT
Astronomical Twilight 5:46 AM CDT 8:15 PM CDT
Moon 6:03 AM CDT (3/10) 6:03 PM CDT (3/10)
Length of Visible Light 12h 37m
Length of Day
11h 49m
Waning Crescent, 2% of the Moon is Illuminated
Mar 10
Waning Crescent
Mar 11
New
Mar 19
First Quarter
Mar 27
Full
Apr 2
Last Quarter

Hourly Weather History & Observations

Time (CDT) Temp. Dew Point Humidity Pressure Visibility Wind Dir Wind Speed Gust Speed Precip Events Conditions
12:15 AM 62.6 °F 55.4 °F 77% 30.07 in 10.0 mi ESE 15.0 mph 20.7 mph N/A   Clear
12:35 AM 62.6 °F 55.4 °F 77% 30.06 in 10.0 mi ESE 13.8 mph - N/A   Clear
12:55 AM 62.6 °F 55.4 °F 77% 30.05 in 10.0 mi ESE 15.0 mph 21.9 mph N/A   Clear
1:15 AM 62.6 °F 55.4 °F 77% 30.05 in 10.0 mi ESE 12.7 mph 19.6 mph N/A   Clear
1:35 AM 62.6 °F 55.4 °F 77% 30.04 in 10.0 mi ESE 12.7 mph - N/A   Clear
1:55 AM 62.6 °F 55.4 °F 77% 30.02 in 10.0 mi ESE 15.0 mph 20.7 mph N/A   Clear
3:15 AM 62.6 °F 55.4 °F 77% 30.02 in 10.0 mi ESE 15.0 mph - N/A   Clear
3:35 AM 62.6 °F 55.4 °F 77% 30.02 in 10.0 mi ESE 12.7 mph 24.2 mph N/A   Clear
3:55 AM 62.6 °F 55.4 °F 77% 30.01 in 10.0 mi ESE 15.0 mph 19.6 mph N/A   Clear
4:15 AM 62.6 °F 55.4 °F 77% 30.02 in 10.0 mi ESE 12.7 mph 19.6 mph N/A   Clear
4:35 AM 62.6 °F 55.4 °F 77% 30.02 in 10.0 mi ESE 13.8 mph 19.6 mph N/A   Clear
4:55 AM 62.6 °F 55.4 °F 77% 30.02 in 10.0 mi ESE 15.0 mph 19.6 mph N/A   Clear
5:15 AM 62.6 °F 55.4 °F 77% 30.01 in 10.0 mi ESE 15.0 mph 20.7 mph N/A   Clear
5:35 AM 62.6 °F 55.4 °F 77% 30.01 in 10.0 mi ESE 13.8 mph 21.9 mph N/A   Clear
5:55 AM 62.6 °F 55.4 °F 77% 30.03 in 10.0 mi East 11.5 mph 16.1 mph N/A   Clear
6:15 AM 62.6 °F 55.4 °F 77% 30.02 in 10.0 mi East 12.7 mph - N/A   Clear
7:35 AM 62.6 °F 55.4 °F 77% 30.02 in 10.0 mi ESE 15.0 mph 26.5 mph N/A   Clear
7:55 AM 62.6 °F 55.4 °F 77% 30.03 in 10.0 mi East 17.3 mph 25.3 mph N/A   Clear
8:15 AM 64.4 °F 55.4 °F 73% 30.04 in 10.0 mi East 17.3 mph 26.5 mph N/A   Clear
8:35 AM 64.4 °F 55.4 °F 73% 30.04 in 10.0 mi ESE 20.7 mph 26.5 mph N/A   Clear
8:55 AM 66.2 °F 55.4 °F 68% 30.05 in 10.0 mi ESE 18.4 mph 21.9 mph N/A   Clear
9:15 AM 68.0 °F 55.4 °F 64% 30.05 in 10.0 mi ESE 20.7 mph 26.5 mph N/A   Clear
9:35 AM 68.0 °F 55.4 °F 64% 30.07 in 10.0 mi ESE 16.1 mph 24.2 mph N/A   Scattered Clouds
9:55 AM 68.0 °F 57.2 °F 68% 30.07 in 10.0 mi ESE 17.3 mph 21.9 mph N/A   Mostly Cloudy
10:15 AM 68.0 °F 59.0 °F 73% 30.09 in 10.0 mi ESE 13.8 mph 25.3 mph N/A   Overcast
10:35 AM 69.8 °F 59.0 °F 68% 30.09 in 10.0 mi ESE 13.8 mph 24.2 mph N/A   Mostly Cloudy
10:55 AM 69.8 °F 59.0 °F 68% 30.08 in 10.0 mi ESE 19.6 mph 28.8 mph N/A   Mostly Cloudy
11:15 AM 69.8 °F 59.0 °F 68% 30.08 in 10.0 mi ESE 24.2 mph 27.6 mph N/A   Scattered Clouds
11:35 AM 71.6 °F 59.0 °F 64% 30.09 in 10.0 mi ESE 19.6 mph 28.8 mph N/A   Scattered Clouds
11:55 AM 71.6 °F 59.0 °F 64% 30.08 in 10.0 mi ESE 19.6 mph 26.5 mph N/A   Mostly Cloudy
12:15 PM 71.6 °F 59.0 °F 64% 30.07 in 10.0 mi ESE 18.4 mph 29.9 mph N/A   Mostly Cloudy
12:35 PM 71.6 °F 59.0 °F 64% 30.07 in 10.0 mi ESE 21.9 mph 32.2 mph N/A   Scattered Clouds
1:35 PM 71.6 °F 59.0 °F 64% 30.07 in 10.0 mi ESE 20.7 mph 29.9 mph N/A   Clear
1:55 PM 71.6 °F 59.0 °F 64% 30.06 in 10.0 mi ESE 21.9 mph 27.6 mph N/A   Clear
2:35 PM 71.6 °F 59.0 °F 64% 30.05 in 10.0 mi ESE 20.7 mph 29.9 mph N/A   Scattered Clouds
2:55 PM 71.6 °F 59.0 °F 64% 30.05 in 10.0 mi ESE 19.6 mph 25.3 mph N/A   Mostly Cloudy
3:15 PM 71.6 °F 59.0 °F 64% 30.04 in 10.0 mi ESE 20.7 mph 26.5 mph N/A   Scattered Clouds
3:35 PM 71.6 °F 59.0 °F 64% 30.03 in 10.0 mi ESE 20.7 mph 26.5 mph N/A   Clear
3:55 PM 69.8 °F 59.0 °F 68% 30.03 in 10.0 mi East 23.0 mph 28.8 mph N/A   Clear
4:15 PM 69.8 °F 59.0 °F 68% 30.02 in 10.0 mi ESE 23.0 mph 28.8 mph N/A   Scattered Clouds
4:35 PM 69.8 °F 59.0 °F 68% 30.02 in 10.0 mi ESE 21.9 mph 27.6 mph N/A   Scattered Clouds
4:55 PM 68.0 °F 59.0 °F 73% 30.01 in 10.0 mi ESE 17.3 mph 26.5 mph N/A   Scattered Clouds
5:15 PM 68.0 °F 59.0 °F 73% 30.00 in 10.0 mi East 19.6 mph 26.5 mph N/A   Scattered Clouds
5:35 PM 68.0 °F 59.0 °F 73% 30.00 in 10.0 mi East 17.3 mph - N/A   Scattered Clouds
5:55 PM 66.2 °F 59.0 °F 78% 30.00 in 7.0 mi East 16.1 mph 25.3 mph N/A   Clear
6:15 PM 66.2 °F 59.0 °F 78% 30.00 in 7.0 mi East 17.3 mph 25.3 mph N/A   Clear
6:35 PM 64.4 °F 59.0 °F 83% 30.00 in 7.0 mi ESE 18.4 mph 24.2 mph N/A   Scattered Clouds
6:55 PM 64.4 °F 59.0 °F 83% 30.00 in 7.0 mi ESE 18.4 mph 25.3 mph N/A   Clear
7:15 PM 64.4 °F 59.0 °F 83% 29.99 in 10.0 mi ESE 16.1 mph 23.0 mph N/A   Scattered Clouds
7:35 PM 64.4 °F 59.0 °F 83% 29.99 in 10.0 mi East 17.3 mph 26.5 mph N/A   Scattered Clouds
7:55 PM 64.4 °F 59.0 °F 83% 29.99 in 10.0 mi East 17.3 mph 24.2 mph N/A   Mostly Cloudy
8:15 PM 64.4 °F 59.0 °F 83% 29.99 in 10.0 mi ESE 17.3 mph 24.2 mph N/A   Scattered Clouds
8:35 PM 64.4 °F 59.0 °F 83% 29.99 in 10.0 mi East 17.3 mph 21.9 mph N/A   Clear
8:55 PM 64.4 °F 59.0 °F 83% 30.00 in 10.0 mi ESE 13.8 mph 24.2 mph N/A   Clear
9:15 PM 64.4 °F 59.0 °F 83% 30.01 in 10.0 mi ESE 12.7 mph 19.6 mph N/A   Clear
9:35 PM 64.4 °F 59.0 °F 83% 30.01 in 10.0 mi ESE 15.0 mph 20.7 mph N/A   Scattered Clouds
9:55 PM 64.4 °F 59.0 °F 83% 30.01 in 10.0 mi ESE 13.8 mph 19.6 mph N/A   Mostly Cloudy
10:15 PM 64.4 °F 59.0 °F 83% 30.01 in 10.0 mi ESE 13.8 mph 19.6 mph N/A   Overcast
10:35 PM 64.4 °F 59.0 °F 83% 30.01 in 10.0 mi SE 13.8 mph 18.4 mph N/A   Overcast
10:55 PM 64.4 °F 59.0 °F 83% 30.00 in 10.0 mi ESE 13.8 mph 21.9 mph N/A   Overcast
11:15 PM 64.4 °F 59.0 °F 83% 29.99 in 10.0 mi ESE 13.8 mph - N/A   Scattered Clouds
11:35 PM 64.4 °F 59.0 °F 83% 29.98 in 10.0 mi ESE 15.0 mph 20.7 mph N/A   Clear
11:55 PM 64.4 °F 59.0 °F 83% 29.97 in 10.0 mi SE 13.8 mph 19.6 mph N/A   Clear
12:15 AM 64.4 °F 59.0 °F 83% 29.97 in 10.0 mi SE 12.7 mph 19.6 mph N/A   Clear
12:35 AM 64.4 °F 59.0 °F 83% 29.95 in 10.0 mi SE 15.0 mph 23.0 mph N/A   Clear
12:55 AM 64.4 °F 59.0 °F 83% 29.93 in 10.0 mi ESE 16.1 mph 24.2 mph N/A   Clear